一网星座-0548星 (ONEWEB-0548)

导读 | 星芒AI

ONEWEB-0548 是 OneWeb 卫星星座计划中的一颗低轨通信卫星,主要用于提供全球宽带互联网服务。该卫星由阿丽亚娜集团制造,采用标准化设计以提高部署效率。它运行在约 1200 公里的近地轨道,与其他 OneWeb 卫星共同构建星座网络,支持偏远地区的高速互联网接入。该计划旨在增强全球数字连接,促进通信公平。ONEWEB-0548 的发射和运行是 OneWeb 恢复和扩展其卫星网络的重要一步。

基本信息
目录编号:
56050
目录名称:
ONEWEB-0548
国际标识:
2023-043E
轨道中心:
EARTH
卫星名称:
一网星座-0548星
卫星全名:
一网星座-0548星 (ONEWEB-0548)
卫星状态:
在轨 (已飞行949 天)
发射日期:
2023-03-26 UTC
国别 :
英国 (GB)
星等 :
--
轨道信息
数据来源 国际轨道数据 AOE轨道数据
星历时间 2025-10-30T06:19:24+0800
9小时前
查看轨道信息
2025-10-25T14:00:00+0800
5天前
查看轨道信息
半长轴 7575.891km 7575.894km
偏心率 0.0001426 0.0001356
轨道倾角 87.899° 87.899°
近地点辐角 88.547° 85.983°
升交点赤经 274.641° 275.575°
平近点角 271.583° 64.153°
近地点 1196.675km 1196.731km
远地点 1198.837km 1198.787km
周期 109.373分钟 109.373分钟
每日圈数 13.16595 13.165943
详细信息
平衡模式:
三轴稳定
覆盖范围:
全球
运营商:
一网卫星公司
运营商所在国:
英国
制造商(研发单位):
一网卫星公司
制造商所在国:
英国
使用方式:
暂无
卫星简介
OneWeb卫星网络由648颗重约125公斤的微型卫星组成,运行在1200公里的轨道上。 每颗卫星都能够提供至少每秒8千兆位的吞吐量,以使用其高吞吐量的Ku频段有效载荷为家庭和移动平台提供互联网接入。该卫星仍在工作。
2D轨道图
3D轨道图
轨道高度分析图
轨道倾角分析图
轨道综合分析图
查看轨道综合分析图